WESTFORD NEEDLES *, 3267

Orbit data source: Space-Track

WESTFORD NEEDLES *, 3267 is space debris in LEO originally from a launch on Thu, 09 May 1963 UTC launched from the Air Force Western Test Range (AFWTR). Debris objects in space refer to the collection of defunct objects orbiting the Earth. Examples of debris include non-operational satellites, rocket bodies, and fragments generated from explosions, collisions, or faulty payload assembly.

Loading next visibility...
Identifier
3267, 1963-014CF
Orbit
LEO
Country
Flag of USUS
Related business
Manufacturer
RCA Victor
Mission
Spacecraft
Bus & Motor
Unknown
Mass
Unknown
Launch date (UTC)
1963-05-09 (63 years ago)
Launch vehicle
Unknown
Launch site
Air Force Western Test Range (AFWTR)
Object type
Payload
Rocket body
Debris
Shape & HBR
Unknown shape, 0.1 m
Radar Cross Section
Medium (>0.1 m² and <1 m²)

Expand to show TLE details & history
Last TLE update: 4 days ago

TLE from 4 days ago
0 WESTFORD NEEDLES *
1 03267U 63014CF  26170.17901315  .00000241  00000-0  15673-3 0  9997
2 03267  88.3784  80.5748 1687497 128.4482 248.0513 11.34137857542566
Epoch: 2026-06-19T04:17Z
TLE epoch observation values (Epoch: 2026-06-19T04:17:46.736Z)
Latitude
Longitude
108.71836°
Altitude
2,705.252 km
Speed
6.337 km/s
True Right ascension
05h 22m 17s
True Declination
0° 00' 00"
Sunlit
Object was in daylight at epoch
Visualization orbit readout
Latitude
Unknown
Longitude
Unknown
Altitude
Unknown
Speed
Unknown
Apparent Right ascension
Unknown
Apparent Declination
Unknown
Sunlit
N/A
Visualization observer readout
Local Sidereal Time
05:33:17
Azimuth
Unknown
Elevation
Unknown
Doppler factor
Unknown
Orbital elements
Apogee altitude
3,398.829 km
Perigee altitude
575.539 km
Semi-major axis
8,365.321 km
Eccentricity
0.16875
Inclination
88.3784°
RAAN
80.5748°
Arg. of periapsis
128.4482°
True anomaly
231.65368°
Mean anomaly
248.0513°
Eccentric anomaly
239.70316°
Mean motion
2.83674 °/min
Orbital period
126.91 mins
BSTAR
0.00015673
Loading maneuver chart data...
Computing Atmospheric mass density...

Documentation

Showing up to 5 results
|